Volver al catálogo

COSMOS 874

ActivoMilitarLEO
NORAD 9591·PAYLOAD·🇷🇺 Russia

Lanzado Dec 7, 1976 desde Plesetsk Cosmodrome

Loading…

Próximos Pases (próximas 24 horas)

TLE

ActualizadoSource: Space-Track

Época: Sep 14, 2026, 14:55 UTC

1 09591U 76118D   26257.62204155 -.00000006  00000-0  69304-4 0  9997
2 09591  74.0285 119.5000 0033482 259.5903 127.9111 12.44004539260126

Sigue COSMOS 874 en tiempo real con AllMySat

Download on the App Store